EI9EF Weather Reports


Display with metric or nautical units.
time (UTC)temp
F
wind
direction
speed
MPH
gust
MPH
rain 1hr
in
rain 24hr
in
rain mn
in
humidity
%
barometer
mb
20181115184540 49 186 13.0 21.0 0.00 0.02 0.02 90 1013.1
20181115181547 49 198 17.0 27.0 0.00 0.02 0.02 90 1012.4
20181115180048 49 191 17.0 26.0 0.00 0.02 0.02 90 1012.1
20181115174520 49 193 21.0 30.0 0.00 0.02 0.02 90 1011.7
20181115173026 49 180 19.0 27.0 0.00 0.02 0.02 90 1011.4
20181115171606 49 172 16.0 22.0 0.00 0.02 0.02 90 1011.1
20181115170016 49 181 16.0 22.0 0.00 0.02 0.02 90 1010.8
20181115164523 49 193 15.0 22.0 0.00 0.02 0.02 90 1010.5
20181115163012 49 201 10.0 17.0 0.00 0.02 0.02 92 1010.4
20181115161504 48 176 11.0 18.0 0.00 0.02 0.02 93 1009.9
20181115160002 48 206 3.0 9.0 0.00 0.02 0.02 93 1009.9
20181115154652 48 201 4.0 11.0 0.01 0.02 0.02 93 1009.8
20181115153209 48 187 8.0 12.0 0.01 0.02 0.02 93 1009.9
20181115153011 48 194 6.0 13.0 0.01 0.02 0.02 93 1009.9
20181115151701 48 209 6.0 12.0 0.01 0.02 0.02 93 1009.8
20181115150130 48 212 11.0 17.0 0.01 0.02 0.02 93 1009.7
20181115144633 48 203 12.0 19.0 0.00 0.01 0.01 92 1009.8
20181115143143 48 230 15.0 20.0 0.00 0.01 0.01 90 1009.6
20181115141634 49 225 11.0 24.0 0.00 0.01 0.01 89 1009.3
20181115140143 49 252 19.0 32.0 0.00 0.01 0.01 89 1009.0
20181115134701 54 218 15.0 27.0 0.00 0.01 0.01 87 1008.4
20181115133122 54 157 20.0 33.0 0.00 0.01 0.01 85 1007.9
20181115131619 54 149 21.0 32.0 0.00 0.01 0.01 85 1008.0
20181115130039 53 155 22.0 36.0 0.00 0.01 0.01 85 1008.1
20181115124643 53 157 24.0 36.0 0.00 0.01 0.01 85 1007.8
20181115123104 54 155 23.0 33.0 0.00 0.01 0.01 84 1007.7
20181115121538 53 159 20.0 35.0 0.00 0.01 0.01 84 1007.6
20181115120110 53 167 25.0 35.0 0.01 0.01 0.01 84 1007.8
20181115114610 54 162 23.0 35.0 0.01 0.01 0.01 82 1008.0
20181115113120 55 163 26.0 39.0 0.01 0.01 0.01 80 1007.7
20181115111605 55 154 25.0 42.0 0.01 0.01 0.01 79 1007.6
20181115110055 55 172 29.0 40.0 0.00 0.00 0.00 78 1007.6
20181115104539 55 149 25.0 40.0 0.00 0.00 0.00 79 1007.3
20181115103047 55 144 24.0 36.0 0.00 0.00 0.00 81 1007.2
20181115101537 55 139 23.0 35.0 0.00 0.00 0.00 82 1007.1
20181115100024 54 155 21.0 30.0 0.00 0.00 0.00 85 1007.6
20181115094524 56 153 17.0 27.0 0.00 0.00 0.00 86 1007.8
20181115093040 56 153 21.0 30.0 0.00 0.00 0.00 87 1007.9
20181115091522 54 153 22.0 30.0 0.00 0.00 0.00 91 1007.9
20181115090011 54 181 23.0 30.0 0.00 0.00 0.00 91 1008.1
20181115084528 55 139 20.0 33.0 0.00 0.00 0.00 90 1008.0
20181115083005 54 165 26.0 40.0 0.00 0.00 0.00 91 1007.8
20181115081501 54 139 25.0 33.0 0.00 0.00 0.00 91 1008.0
20181115080156 54 144 24.0 31.0 0.00 0.00 0.00 92 1008.1
20181115074651 54 149 25.0 31.0 0.00 0.02 0.00 93 1008.1
20181115073136 54 149 20.0 32.0 0.00 0.02 0.00 93 1008.2
20181115071659 53 149 19.0 33.0 0.00 0.02 0.00 94 1008.3
20181115070208 53 149 18.0 25.0 0.00 0.02 0.00 94 1008.4
20181115064703 53 170 17.0 27.0 0.00 0.06 0.00 94 1008.5
20181115063136 53 168 20.0 29.0 0.00 0.06 0.00 94 1008.7
20181115061623 53 163 14.0 21.0 0.00 0.06 0.00 94 1008.9
20181115060126 53 159 14.0 21.0 0.00 0.06 0.00 94 1009.0
20181115054625 53 139 10.0 16.0 0.00 0.36 0.00 94 1009.0
20181115053129 53 156 9.0 15.0 0.00 0.36 0.00 94 1009.2
20181115051637 53 149 10.0 16.0 0.00 0.36 0.00 94 1009.1
20181115050116 53 129 9.0 17.0 0.00 0.36 0.00 94 1009.2
20181115044649 53 161 13.0 21.0 0.00 0.36 0.00 94 1009.3
20181115043111 53 168 13.0 21.0 0.00 0.36 0.00 94 1009.1
20181115041631 53 161 12.0 17.0 0.00 0.36 0.00 94 1009.3
20181115040057 53 165 7.0 13.0 0.00 0.36 0.00 94 1009.5
20181115034620 53 193 4.0 13.0 0.00 0.36 0.00 94 1009.5
20181115033109 53 165 7.0 10.0 0.00 0.36 0.00 94 1009.6
20181115031558 53 195 7.0 13.0 0.00 0.36 0.00 94 1009.5
20181115030051 53 210 11.0 18.0 0.00 0.36 0.00 94 1009.5
20181115024615 53 201 11.0 15.0 0.00 0.36 0.00 94 1009.4
20181115023112 53 205 7.0 12.0 0.00 0.36 0.00 93 1009.6
20181115021602 54 195 11.0 23.0 0.00 0.36 0.00 93 1009.6
20181115020034 54 160 15.0 22.0 0.00 0.36 0.00 93 1009.5
20181115014523 54 175 14.0 21.0 0.00 0.36 0.00 93 1009.6
20181115013050 54 166 14.0 22.0 0.00 0.36 0.00 92 1009.4
20181115011528 54 175 16.0 23.0 0.00 0.36 0.00 92 1009.4
20181115010042 54 173 19.0 25.0 0.00 0.36 0.00 93 1009.4
20181115004532 54 175 14.0 24.0 0.00 0.36 0.00 92 1009.4
20181115003024 54 163 16.0 23.0 0.00 0.36 0.00 92 1009.2
20181115001514 54 169 15.0 22.0 0.00 0.36 0.00 92 1009.2
20181115000008 54 170 14.0 24.0 0.00 0.36 0.00 91 1008.9
20181114234526 54 177 19.0 28.0 0.00 0.36 0.36 92 1009.0
20181114233007 54 197 15.0 25.0 0.00 0.36 0.36 91 1008.9
20181114231529 55 161 20.0 27.0 0.00 0.36 0.36 91 1008.9
20181114230008 55 168 19.0 27.0 0.00 0.36 0.36 91 1008.9
20181114224530 54 157 17.0 26.0 0.00 0.36 0.36 92 1008.9
20181114223003 54 165 18.0 26.0 0.00 0.36 0.36 92 1008.8
20181114221504 55 178 19.0 28.0 0.00 0.36 0.36 92 1008.8
20181114220221 55 161 21.0 27.0 0.00 0.36 0.36 91 1008.7
20181114214631 55 168 19.0 29.0 0.00 0.37 0.36 91 1008.5
20181114213149 55 159 17.0 30.0 0.00 0.37 0.36 91 1008.4
20181114211624 55 149 20.0 30.0 0.00 0.37 0.36 90 1008.4
20181114210133 55 162 23.0 30.0 0.00 0.37 0.36 90 1008.2
20181114204604 55 168 22.0 30.0 0.00 0.37 0.36 90 1007.9
20181114203131 55 172 24.0 36.0 0.00 0.37 0.36 90 1007.7
20181114201637 55 171 24.0 33.0 0.00 0.37 0.36 90 1007.6
20181114200130 55 170 25.0 37.0 0.00 0.37 0.36 90 1007.4
20181114194657 55 166 24.0 36.0 0.00 0.38 0.36 91 1007.3
20181114193105 55 149 24.0 34.0 0.00 0.38 0.36 92 1007.2
20181114191633 55 163 23.0 35.0 0.00 0.38 0.36 92 1007.2
20181114190219 55 168 27.0 36.0 0.00 0.38 0.36 92 1006.9